Orbital Elements at Epoch 2459000.5 (2020-May-31.0) TDB
Reference: JPL 22 (heliocentric ecliptic J2000)
Element | Value | Uncertainty (1-sigma) | Units |
e | .07593243089903015 | 5.0617e-08 | |
a | 1.915286421985562 | 5.3824e-09 | au |
q | 1.769854068096293 | 9.7316e-08 | au |
i | 20.85459194821652 | 5.853e-06 | deg |
node | 197.4990169673507 | 8.814e-06 | deg |
peri | 167.1400847805163 | 2.4642e-05 | deg |
M | 6.174103055903847 | 2.371e-05 | deg |
tp | 2458983.895706739951 (2020-May-14.39570674) | 6.3743e-05 | TDB |
period | 968.1642044995923 2.65 | 4.0812e-06 1.117e-08 | d yr |
n | .37183775058702 | 1.5674e-09 | deg/d |
Q | 2.060718775874832 | 5.7911e-09 | au |
|
| | Orbit Determination Parameters
Additional Information
|